Total_Precipitation_Accumulation
0.40 0.32 0.49 0.50 0.48 0.58 0.86 0.82 0.75 0.35 0.19 0.15 0.17 0.23 0.22 0.19 0.17 0.18 0.20 0.21 0.22 0.23 0.23 0.20 0.17 0.15 0.13 0.13 0.15 0.18 0.19 0.20 0.21 0.23 0.23 0.25 0.26 0.29 0.31 0.34 0.40 0.43 0.47 0.48
0.46 0.29 0.40 0.46 0.43 0.45 0.50 0.53 0.52 0.37 0.29 0.19 0.20 0.21 0.21 0.18 0.16 0.16 0.16 0.19 0.20 0.19 0.21 0.19 0.19 0.18 0.16 0.15 0.15 0.17 0.18 0.18 0.19 0.21 0.22 0.23 0.27 0.29 0.30 0.33 0.39 0.44 0.51 0.57
0.53 0.32 0.42 0.47 0.41 0.44 0.43 0.40 0.42 0.44 0.34 0.25 0.25 0.23 0.22 0.18 0.15 0.14 0.12 0.12 0.15 0.16 0.18 0.18 0.17 0.16 0.15 0.15 0.15 0.16 0.17 0.17 0.19 0.21 0.24 0.25 0.28 0.32 0.38 0.43 0.50 0.57 0.60 0.70
0.53 0.38 0.50 0.37 0.30 0.32 0.36 0.34 0.37 0.35 0.27 0.23 0.23 0.23 0.21 0.17 0.14 0.11 0.09 0.07 0.08 0.11 0.12 0.12 0.11 0.12 0.13 0.12 0.13 0.15 0.17 0.21 0.23 0.24 0.31 0.37 0.38 0.41 0.48 0.55 0.61 0.68 0.68 0.71
0.53 0.40 0.27 0.20 0.20 0.23 0.31 0.34 0.31 0.23 0.17 0.16 0.17 0.21 0.21 0.17 0.13 0.10 0.08 0.08 0.07 0.08 0.10 0.10 0.11 0.12 0.13 0.14 0.15 0.16 0.19 0.24 0.27 0.28 0.37 0.46 0.47 0.49 0.54 0.59 0.65 0.67 0.66 0.62
0.49 0.42 0.21 0.13 0.08 0.10 0.20 0.32 0.22 0.20 0.18 0.18 0.20 0.24 0.21 0.16 0.14 0.13 0.12 0.10 0.10 0.11 0.12 0.14 0.16 0.17 0.18 0.21 0.26 0.28 0.29 0.33 0.38 0.44 0.51 0.54 0.55 0.54 0.51 0.50 0.52 0.50 0.46 0.42
0.39 0.35 0.10 0.05 0.05 0.07 0.21 0.27 0.13 0.14 0.16 0.18 0.19 0.18 0.17 0.12 0.11 0.14 0.15 0.15 0.14 0.15 0.17 0.19 0.19 0.21 0.23 0.26 0.35 0.40 0.43 0.45 0.46 0.49 0.52 0.51 0.50 0.46 0.41 0.36 0.34 0.32 0.32 0.30
0.19 0.26 0.13 0.06 0.07 0.11 0.15 0.11 0.11 0.14 0.16 0.17 0.17 0.14 0.13 0.14 0.12 0.11 0.11 0.13 0.15 0.18 0.20 0.23 0.25 0.29 0.31 0.33 0.38 0.41 0.42 0.42 0.41 0.39 0.38 0.40 0.39 0.37 0.32 0.29 0.26 0.26 0.26 0.28
0.10 0.11 0.09 0.08 0.08 0.08 0.07 0.08 0.08 0.11 0.13 0.13 0.14 0.14 0.12 0.11 0.11 0.10 0.11 0.12 0.15 0.19 0.23 0.27 0.28 0.30 0.32 0.32 0.31 0.32 0.33 0.32 0.30 0.26 0.24 0.25 0.26 0.26 0.26 0.24 0.23 0.25 0.28 0.30
0.07 0.05 0.04 0.06 0.05 0.06 0.05 0.04 0.04 0.05 0.07 0.11 0.14 0.14 0.13 0.11 0.10 0.08 0.09 0.10 0.12 0.14 0.16 0.18 0.19 0.21 0.22 0.21 0.20 0.20 0.20 0.21 0.21 0.19 0.18 0.18 0.19 0.21 0.22 0.23 0.22 0.22 0.26 0.31
0.08 0.05 0.05 0.05 0.04 0.04 0.03 0.02 0.02 0.02 0.03 0.06 0.08 0.08 0.10 0.10 0.09 0.08 0.08 0.08 0.09 0.09 0.09 0.11 0.11 0.12 0.12 0.12 0.13 0.14 0.14 0.15 0.16 0.17 0.18 0.19 0.20 0.22 0.25 0.26 0.29 0.28 0.26 0.28
0.10 0.06 0.06 0.05 0.04 0.04 0.04 0.03 0.03 0.03 0.03 0.04 0.05 0.06 0.05 0.06 0.06 0.06 0.07 0.08 0.08 0.08 0.09 0.12 0.11 0.10 0.10 0.09 0.09 0.11 0.13 0.14 0.16 0.17 0.17 0.18 0.20 0.22 0.26 0.27 0.30 0.31 0.31 0.31
0.06 0.04 0.05 0.04 0.03 0.03 0.03 0.03 0.03 0.03 0.03 0.04 0.05 0.05 0.05 0.06 0.07 0.08 0.09 0.10 0.10 0.09 0.09 0.11 0.13 0.12 0.12 0.12 0.12 0.12 0.13 0.15 0.16 0.17 0.19 0.18 0.19 0.21 0.22 0.23 0.25 0.27 0.28 0.31
0.03 0.04 0.05 0.04 0.03 0.02 0.02 0.03 0.03 0.03 0.03 0.04 0.05 0.05 0.05 0.05 0.07 0.10 0.11 0.13 0.13 0.12 0.12 0.11 0.12 0.14 0.13 0.12 0.13 0.15 0.15 0.16 0.18 0.17 0.18 0.18 0.18 0.19 0.20 0.21 0.20 0.19 0.21 0.25
0.02 0.04 0.05 0.05 0.04 0.04 0.03 0.03 0.03 0.03 0.04 0.03 0.04 0.04 0.05 0.06 0.08 0.10 0.10 0.11 0.13 0.12 0.12 0.12 0.12 0.13 0.14 0.13 0.12 0.12 0.13 0.14 0.15 0.16 0.18 0.19 0.19 0.19 0.20 0.20 0.20 0.20 0.21 0.23
0.03 0.03 0.03 0.03 0.02 0.03 0.04 0.04 0.04 0.05 0.05 0.05 0.06 0.07 0.09 0.09 0.09 0.09 0.09 0.10 0.10 0.10 0.10 0.09 0.10 0.11 0.11 0.11 0.12 0.11 0.12 0.15 0.16 0.15 0.15 0.17 0.19 0.20 0.20 0.21 0.22 0.22 0.22 0.24
0.04 0.05 0.05 0.05 0.04 0.04 0.04 0.04 0.04 0.05 0.06 0.06 0.07 0.08 0.09 0.09 0.08 0.08 0.08 0.08 0.08 0.09 0.10 0.10 0.11 0.10 0.09 0.09 0.10 0.10 0.10 0.13 0.17 0.15 0.15 0.15 0.16 0.18 0.19 0.21 0.22 0.22 0.21 0.26
0.05 0.05 0.05 0.06 0.06 0.05 0.05 0.05 0.05 0.05 0.06 0.06 0.06 0.07 0.09 0.09 0.10 0.10 0.10 0.10 0.09 0.09 0.09 0.09 0.09 0.09 0.09 0.10 0.10 0.11 0.11 0.12 0.13 0.13 0.14 0.16 0.18 0.18 0.19 0.20 0.19 0.19 0.20 0.23
0.04 0.04 0.04 0.05 0.06 0.06 0.06 0.07 0.06 0.06 0.06 0.07 0.07 0.08 0.09 0.09 0.09 0.09 0.09 0.10 0.11 0.11 0.11 0.10 0.12 0.10 0.09 0.10 0.12 0.11 0.11 0.13 0.14 0.14 0.16 0.19 0.21 0.18 0.18 0.19 0.19 0.20 0.21 0.21
0.04 0.05 0.07 0.08 0.09 0.10 0.10 0.09 0.09 0.09 0.09 0.08 0.08 0.08 0.08 0.09 0.08 0.08 0.08 0.09 0.09 0.10 0.10 0.12 0.12 0.11 0.10 0.11 0.14 0.11 0.11 0.13 0.15 0.16 0.18 0.19 0.20 0.19 0.18 0.19 0.19 0.20 0.20 0.20
0.07 0.07 0.09 0.11 0.11 0.12 0.11 0.10 0.10 0.09 0.09 0.08 0.08 0.09 0.10 0.10 0.09 0.09 0.09 0.09 0.09 0.09 0.09 0.11 0.10 0.10 0.11 0.13 0.15 0.14 0.13 0.14 0.15 0.16 0.18 0.19 0.20 0.20 0.19 0.19 0.19 0.19 0.19 0.20
0.10 0.10 0.11 0.13 0.14 0.14 0.13 0.10 0.09 0.08 0.08 0.08 0.08 0.08 0.08 0.09 0.09 0.09 0.09 0.10 0.10 0.10 0.08 0.08 0.08 0.10 0.13 0.15 0.14 0.13 0.14 0.15 0.16 0.17 0.18 0.19 0.20 0.20 0.20 0.21 0.22 0.21 0.21 0.21
0.11 0.12 0.11 0.12 0.13 0.14 0.13 0.12 0.11 0.10 0.09 0.09 0.09 0.10 0.09 0.09 0.09 0.09 0.10 0.09 0.08 0.09 0.08 0.07 0.09 0.12 0.13 0.12 0.11 0.12 0.14 0.15 0.16 0.17 0.18 0.19 0.20 0.21 0.22 0.22 0.21 0.20 0.20 0.20
0.13 0.12 0.11 0.11 0.11 0.10 0.10 0.11 0.11 0.11 0.11 0.11 0.11 0.11 0.11 0.11 0.10 0.09 0.09 0.09 0.10 0.10 0.09 0.08 0.11 0.12 0.12 0.11 0.11 0.13 0.14 0.15 0.16 0.17 0.18 0.19 0.20 0.21 0.21 0.20 0.20 0.19 0.18 0.18
0.12 0.11 0.11 0.10 0.10 0.10 0.10 0.10 0.09 0.09 0.09 0.09 0.09 0.08 0.09 0.09 0.10 0.10 0.09 0.09 0.11 0.12 0.10 0.11 0.13 0.13 0.13 0.13 0.14 0.15 0.16 0.17 0.18 0.19 0.20 0.19 0.19 0.19 0.19 0.19 0.19 0.19 0.18 0.17
0.10 0.09 0.09 0.08 0.08 0.08 0.08 0.08 0.08 0.08 0.09 0.09 0.08 0.08 0.07 0.08 0.08 0.08 0.08 0.08 0.09 0.11 0.11 0.12 0.13 0.14 0.15 0.15 0.16 0.16 0.17 0.18 0.19 0.18 0.17 0.17 0.18 0.19 0.19 0.18 0.18 0.18 0.17 0.17
0.09 0.08 0.08 0.08 0.07 0.07 0.07 0.07 0.08 0.08 0.09 0.09 0.10 0.09 0.09 0.09 0.09 0.08 0.08 0.07 0.07 0.08 0.09 0.10 0.10 0.11 0.12 0.13 0.14 0.15 0.15 0.16 0.16 0.16 0.17 0.18 0.18 0.18 0.18 0.18 0.18 0.18 0.17 0.17